Jerez de la Frontera, Spain

7:55 PM CET on February 27, 2017 (GMT +0100)
Jerez

Weather History for LEJR - March, 2013

Change the Weather History Date:

Friday, March 29, 2013

  Actual Average Record
Temperature  
Mean Temperature 62 °F -  
Max Temperature 67 °F 70 °F 81 °F (2015)
Min Temperature 56 °F 48 °F 41 °F (2016)
Degree Days  
Heating Degree Days 4    
Growing Degree Days 12 (Base 50)    
Moisture  
Dew Point 58 °F    
Average Humidity 89    
Maximum Humidity 100    
Minimum Humidity 62    
Precipitation  
Precipitation 0.01 in 0.07 in - ()
Sea Level Pressure  
Sea Level Pressure 30.07 in    
Wind  
Wind Speed 11 mph ()    
Max Wind Speed 20 mph    
Max Gust Speed -    
Visibility 6.1 miles    
Events Rain    
Averages and records for this station are not official NWS values.
T = Trace of Precipitation, MM = Missing Value Source: Averaged Metar Reports

Daily Weather History Graph

Daily Weather History Graph

Search for Another Location

Airport or City:

Trip Planner

Search our weather history database for the weather conditions in past years. The results will help you decide how hot, cold, wet, or windy it might be!

Date:

Astronomy

Mar. 29, 2013 Rise Set
Actual Time 7:14 AM CET 7:44 PM CET
Civil Twilight 6:48 AM CET 8:10 PM CET
Nautical Twilight 6:18 AM CET 8:40 PM CET
Astronomical Twilight 5:46 AM CET 9:11 PM CET
Moon 10:23 PM CET (3/29) 8:17 AM CET (3/29)
Length of Visible Light 13h 21m
Length of Day
12h 29m
Waning Gibbous, 95% of the Moon is Illuminated
Mar 29
Waning Gibbous
Apr 3
Last Quarter
Apr 10
New
Apr 18
First Quarter
Apr 25
Full

Hourly Weather History & Observations

Time (CET) Temp. Dew Point Humidity Pressure Visibility Wind Dir Wind Speed Gust Speed Precip Events Conditions
1:00 AM 58 °F 57 °F 95% 30.12 in - SW 8.1 mph - -  
5:00 AM 59.0 °F 57.2 °F 94% 30.09 in 6.2 mi South 6.9 mph - N/A   Mostly Cloudy
5:30 AM 57.2 °F 57.2 °F 100% 30.06 in 6.2 mi South 6.9 mph - N/A   Mostly Cloudy
6:00 AM 57.2 °F 57.2 °F 100% 30.06 in 6.2 mi South 4.6 mph - N/A   Mostly Cloudy
6:30 AM 57.2 °F 57.2 °F 100% 30.06 in 6.2 mi South 5.8 mph - N/A   Scattered Clouds
7:00 AM 58 °F 58 °F 100% 30.08 in 9 mi South 6.9 mph - -   Mostly Cloudy
7:00 AM 57.2 °F 57.2 °F 100% 30.06 in 6.2 mi South 6.9 mph - N/A   Mostly Cloudy
7:30 AM 57.2 °F 57.2 °F 100% 30.09 in 6.2 mi SW 4.6 mph - N/A   Mostly Cloudy
8:00 AM 59.0 °F 57.2 °F 94% 30.09 in 6.2 mi South 6.9 mph - N/A Rain Light Rain
8:30 AM 59.0 °F 57.2 °F 94% 30.09 in 6.2 mi South 8.1 mph - N/A   Mostly Cloudy
9:00 AM 59.0 °F 59.0 °F 100% 30.09 in 6.2 mi South 6.9 mph - N/A   Mostly Cloudy
9:30 AM 60.8 °F 59.0 °F 94% 30.09 in 6.2 mi South 11.5 mph - N/A   Mostly Cloudy
10:00 AM 60.8 °F 59.0 °F 94% 30.06 in 6.2 mi SSW 15.0 mph - N/A   Mostly Cloudy
10:30 AM 60.8 °F 57.2 °F 88% 30.09 in 6.2 mi SW 17.3 mph - N/A   Mostly Cloudy
11:00 AM 62.6 °F 57.2 °F 82% 30.12 in 6.2 mi SW 17.3 mph - N/A   Mostly Cloudy
11:30 AM 62.6 °F 55.4 °F 77% 30.12 in 6.2 mi SW 18.4 mph - N/A   Mostly Cloudy
12:00 PM 62.6 °F 57.2 °F 82% 30.12 in 6.2 mi SW 15.0 mph - N/A Rain Light Rain
12:30 PM 64.4 °F 57.2 °F 77% 30.09 in 6.2 mi SSW 16.1 mph - N/A   Mostly Cloudy
1:00 PM 67 °F 57 °F 62% 30.10 in 12 mi SSW 19.6 mph - -   Mostly Cloudy
1:00 PM 64.4 °F 57.2 °F 77% 30.09 in 6.2 mi SSW 19.6 mph - N/A   Scattered Clouds
1:30 PM 64.4 °F 57.2 °F 77% 30.09 in 6.2 mi SSW 18.4 mph - N/A   Mostly Cloudy
2:00 PM 64.4 °F 55.4 °F 73% 30.09 in 6.2 mi SSW 17.3 mph - N/A   Mostly Cloudy
2:30 PM 64.4 °F 57.2 °F 77% 30.06 in 6.2 mi SW 18.4 mph - N/A   Mostly Cloudy
3:00 PM 64.4 °F 57.2 °F 77% 30.06 in 6.2 mi SW 18.4 mph - N/A   Mostly Cloudy
3:30 PM 64.4 °F 57.2 °F 77% 30.06 in 6.2 mi SW 19.6 mph - N/A   Mostly Cloudy
4:00 PM 62.6 °F 57.2 °F 82% 30.06 in 6.2 mi SW 18.4 mph - N/A   Mostly Cloudy
4:30 PM 64.4 °F 57.2 °F 77% 30.04 in 6.2 mi SW 19.6 mph - N/A   Mostly Cloudy
5:30 PM 62.6 °F 57.2 °F 82% 30.04 in 6.2 mi SW 15.0 mph - N/A   Mostly Cloudy
5:40 PM 62.6 °F 59.0 °F 88% 30.06 in 6.2 mi SW 18.4 mph - N/A   Mostly Cloudy
6:00 PM 62.6 °F 59.0 °F 88% 30.06 in 6.2 mi SW 17.3 mph - N/A   Overcast
6:30 PM 62.6 °F 59.0 °F 88% 30.04 in 6.2 mi SW 16.1 mph - N/A   Overcast
7:00 PM 63 °F 60 °F 88% 30.04 in 9 mi SW 13.8 mph - - Rain Light Rain
7:00 PM 62.6 °F 59.0 °F 88% 30.04 in 6.2 mi SW 13.8 mph - N/A Rain Light Rain
7:30 PM 62.6 °F 59.0 °F 88% 30.04 in 6.2 mi SW 15.0 mph - N/A   Overcast
8:00 PM 60.8 °F 59.0 °F 94% 30.04 in 6.2 mi SW 16.1 mph - N/A   Overcast
8:30 PM 62.6 °F 59.0 °F 88% 30.04 in 6.2 mi SW 16.1 mph - N/A   Mostly Cloudy
9:00 PM 60.8 °F 59.0 °F 94% 30.04 in 6.2 mi SW 13.8 mph - N/A   Mostly Cloudy
9:30 PM 60.8 °F 59.0 °F 94% 30.04 in 6.2 mi SW 15.0 mph - N/A   Mostly Cloudy
10:00 PM 62.6 °F 60.8 °F 94% 30.04 in 6.2 mi SW 17.3 mph - N/A   Mostly Cloudy
10:10 PM 62.6 °F 60.8 °F 94% 30.06 in 4.3 mi SW 16.1 mph - N/A Rain Rain Showers
10:20 PM 60.8 °F 60.8 °F 100% 30.06 in 2.2 mi SW 18.4 mph - N/A Rain Rain
10:30 PM 60.8 °F 60.8 °F 100% 30.06 in 2.8 mi SW 18.4 mph - N/A Rain Rain
11:00 PM 60.8 °F 60.8 °F 100% 30.06 in 1.9 mi SW 16.1 mph - N/A Rain Heavy Rain